Probability
6 3 3 0 0 0 3 0 0 0 0 0 0 0 0 0 0 0 0 0 0 0 0 0 0 0 0 0 0 0 0 0 0 0 0 0 0 0 0 0 0 0 0
3 3 3 3 0 0 0 0 0 0 0 0 0 0 0 0 0 0 0 0 0 0 0 0 0 0 0 0 0 0 0 0 0 0 0 0 0 0 0 0 0 0 0
3 3 3 3 3 0 0 0 0 0 0 0 0 0 0 0 0 0 0 0 0 0 0 0 0 0 0 0 0 0 0 0 0 0 0 0 0 0 0 0 0 0 0
3 3 3 3 3 3 0 0 0 0 0 0 0 0 0 0 0 0 0 0 0 0 0 0 0 0 0 0 0 0 0 0 0 0 0 0 0 0 0 0 0 0 0
0 3 3 3 3 0 0 0 0 0 0 0 0 0 0 0 0 0 0 0 0 0 0 0 0 0 0 0 0 0 0 0 0 0 0 0 0 0 0 0 0 0 0
0 6 10 6 3 3 3 0 0 0 0 0 0 0 0 0 0 0 0 0 0 0 0 0 0 0 0 0 0 0 0 0 0 0 0 0 0 0 0 0 0 0 0
6 10 10 6 3 3 3 0 0 0 0 0 0 0 0 0 0 0 0 0 0 0 0 0 0 0 0 0 0 0 0 0 0 0 0 0 0 0 0 0 0 0 0
6 6 6 3 3 0 0 0 0 0 0 0 0 0 0 0 0 0 0 0 0 0 0 0 0 0 0 0 0 0 0 0 0 0 0 0 0 0 0 0 0 0 0
6 6 6 3 3 0 3 0 0 0 0 0 0 0 0 0 0 0 0 0 0 0 0 0 0 0 0 0 0 0 0 0 0 0 0 0 0 0 0 0 0 0 0
3 6 3 3 3 3 3 6 6 6 3 0 0 0 0 0 0 0 0 0 0 0 0 0 0 0 0 0 0 0 0 0 0 0 0 0 0 0 0 0 0 0 0
3 6 3 3 3 3 6 6 6 6 3 3 3 3 0 0 0 0 0 0 0 0 0 0 0 0 0 0 0 0 0 0 0 0 0 0 0 0 0 0 0 0 0
6 3 3 3 3 3 6 6 6 3 6 6 3 3 0 0 0 0 0 0 0 0 0 0 0 0 0 0 0 0 0 0 0 0 0 0 0 0 0 0 0 0 0
3 3 3 3 3 6 6 6 3 3 3 3 3 3 3 3 0 0 0 0 0 0 0 0 0 0 0 0 0 0 0 0 0 0 0 0 0 0 0 0 0 0 0
3 3 3 3 3 6 6 3 3 3 3 3 3 3 3 0 3 0 0 0 0 0 0 0 0 0 0 0 0 0 0 0 0 0 0 0 0 0 0 0 0 0 0
3 3 3 3 3 3 3 0 3 0 0 0 3 3 0 0 3 3 3 0 0 0 0 0 0 0 0 0 0 0 0 0 0 0 0 0 0 0 0 0 0 0 0
3 3 3 3 3 0 0 0 0 0 0 0 0 0 0 0 0 0 0 0 0 0 0 0 0 0 0 0 0 0 0 0 0 0 0 0 0 0 0 0 0 0 0
0 0 3 3 3 0 0 0 0 0 0 0 0 0 0 0 0 0 0 0 0 0 0 0 0 0 0 0 0 0 0 0 0 0 0 0 0 0 0 0 0 0 0
0 0 0 0 0 0 0 0 0 0 0 0 0 0 0 0 0 0 0 0 0 0 0 0 0 0 0 0 0 0 0 0 0 0 0 0 0 0 0 0 0 0 0
0 0 0 0 0 0 0 0 0 0 0 0 0 0 0 0 0 0 0 0 0 0 0 0 0 0 0 0 0 0 0 0 0 0 0 0 0 0 0 0 0 0 0
0 0 0 0 0 0 0 0 0 0 0 0 0 0 0 0 0 0 0 0 0 0 0 0 0 0 0 0 0 0 0 0 0 0 0 0 0 0 0 0 0 0 0
0 0 0 0 0 0 0 0 0 0 0 0 0 0 0 0 0 0 0 0 0 0 0 0 0 0 0 0 0 0 0 0 0 0 0 0 0 0 0 0 0 0 0
0 0 0 0 0 0 0 0 0 0 0 0 0 0 0 0 0 0 0 0 0 0 0 0 0 0 0 0 0 0 0 0 0 0 0 0 0 0 0 0 0 0 0
0 0 0 0 0 0 0 0 0 0 0 0 0 0 0 0 0 0 0 0 0 0 0 0 0 0 0 0 0 0 0 0 0 0 0 0 0 0 0 0 0 0 0
0 0 0 0 0 0 0 0 0 0 0 0 0 0 0 0 0 0 0 0 0 0 0 0 0 0 0 0 0 0 0 0 0 0 0 0 0 0 0 0 0 0 0
0 0 0 0 0 0 0 0 0 0 0 0 0 0 0 0 0 0 0 0 0 0 0 0 0 0 0 0 0 0 0 0 0 0 0 0 0 0 0 0 0 0 0
0 0 0 0 0 0 0 0 0 0 0 0 0 0 0 0 0 0 0 0 0 0 0 0 0 0 0 0 0 0 0 0 0 0 0 0 0 0 0 0 0 0 0
Height
5808 5807 5806 5805 5804 5802 5801 5801 5800 5799 5798 5797 5797 5796 5796 5796 5795 5795 5795 5794 5794 5794 5794 5794 5793 5793 5793 5793 5792 5792 5792 5791 5791 5791 5790 5790 5790 5790 5790 5790 5790 5790 5790
5803 5802 5800 5799 5798 5797 5796 5795 5794 5793 5792 5792 5791 5790 5790 5789 5789 5789 5788 5788 5788 5788 5787 5787 5787 5787 5787 5787 5787 5786 5786 5786 5786 5785 5784 5784 5784 5784 5784 5784 5784 5784 5784
5797 5796 5794 5793 5792 5791 5790 5789 5788 5787 5786 5785 5785 5784 5783 5783 5782 5782 5782 5781 5781 5781 5781 5781 5781 5781 5781 5781 5780 5780 5779 5779 5779 5779 5779 5778 5778 5778 5778 5778 5777 5777 5777
5791 5789 5788 5787 5785 5784 5783 5782 5781 5781 5780 5779 5778 5777 5777 5776 5776 5775 5775 5775 5774 5774 5774 5774 5774 5774 5774 5774 5773 5773 5773 5772 5772 5772 5772 5771 5771 5771 5771 5771 5771 5770 5770
5784 5783 5781 5780 5779 5777 5776 5776 5775 5774 5773 5772 5771 5770 5770 5769 5769 5768 5768 5767 5767 5767 5767 5767 5766 5767 5766 5766 5766 5766 5765 5765 5765 5765 5764 5764 5764 5764 5764 5764 5764 5763 5763
5777 5776 5774 5773 5772 5771 5769 5768 5767 5766 5765 5765 5764 5763 5762 5762 5761 5761 5760 5760 5760 5760 5760 5759 5759 5759 5759 5758 5758 5758 5758 5758 5757 5757 5757 5756 5756 5756 5756 5756 5756 5756 5756
5771 5769 5768 5766 5765 5763 5762 5761 5760 5759 5758 5757 5756 5755 5755 5754 5754 5753 5753 5753 5753 5752 5752 5752 5751 5750 5750 5750 5750 5750 5749 5749 5749 5749 5749 5748 5748 5748 5748 5747 5747 5747 5747
5764 5762 5761 5759 5758 5756 5755 5753 5752 5751 5750 5749 5748 5748 5747 5746 5746 5745 5745 5745 5745 5744 5744 5743 5743 5742 5742 5742 5742 5742 5741 5741 5741 5741 5741 5740 5740 5739 5739 5739 5738 5739 5739
5756 5755 5753 5752 5750 5748 5747 5745 5744 5742 5741 5741 5740 5740 5739 5739 5738 5737 5737 5736 5736 5736 5735 5735 5734 5734 5734 5734 5733 5733 5733 5733 5732 5732 5732 5732 5731 5731 5730 5730 5729 5729 5729
5748 5746 5745 5743 5742 5740 5739 5737 5735 5734 5733 5732 5732 5731 5731 5730 5729 5729 5728 5728 5728 5727 5727 5726 5725 5725 5725 5725 5725 5724 5724 5724 5724 5723 5723 5723 5722 5722 5721 5721 5720 5720 5720
5739 5738 5736 5734 5733 5731 5730 5728 5727 5726 5724 5724 5723 5722 5722 5721 5720 5720 5719 5719 5718 5718 5718 5717 5716 5716 5715 5715 5715 5715 5715 5714 5714 5714 5714 5713 5713 5712 5712 5711 5710 5710 5710
5731 5729 5727 5725 5723 5722 5720 5719 5717 5716 5715 5714 5713 5713 5713 5712 5711 5710 5710 5709 5709 5709 5708 5708 5707 5706 5706 5705 5705 5705 5705 5704 5704 5704 5703 5703 5703 5702 5701 5701 5700 5699 5699
5721 5719 5717 5715 5714 5712 5710 5709 5707 5706 5705 5704 5704 5703 5703 5702 5701 5701 5700 5699 5699 5698 5698 5698 5697 5697 5696 5696 5695 5695 5694 5694 5693 5693 5693 5693 5693 5692 5691 5690 5690 5689 5688
5711 5709 5707 5705 5703 5702 5700 5699 5698 5696 5695 5694 5693 5693 5692 5692 5691 5691 5690 5689 5689 5688 5688 5687 5687 5686 5686 5686 5685 5684 5684 5683 5683 5682 5682 5682 5681 5680 5680 5679 5679 5678 5678
5700 5697 5695 5694 5692 5691 5690 5689 5688 5686 5685 5684 5683 5682 5682 5682 5681 5680 5680 5679 5679 5679 5678 5677 5677 5676 5676 5675 5674 5674 5673 5672 5672 5672 5671 5671 5670 5669 5669 5668 5667 5667 5667
5689 5686 5684 5682 5681 5680 5679 5678 5677 5676 5675 5674 5673 5672 5671 5671 5670 5670 5669 5669 5668 5668 5668 5667 5666 5666 5665 5664 5663 5662 5662 5661 5661 5660 5660 5659 5659 5658 5658 5657 5656 5655 5655
5679 5676 5674 5672 5671 5670 5669 5668 5667 5666 5664 5663 5662 5661 5661 5660 5659 5659 5658 5658 5657 5657 5656 5656 5655 5655 5653 5653 5652 5651 5650 5650 5649 5649 5648 5647 5647 5646 5646 5645 5644 5643 5643
5669 5666 5664 5662 5661 5659 5658 5657 5656 5655 5654 5653 5652 5650 5649 5649 5648 5647 5647 5646 5646 5645 5645 5645 5644 5643 5642 5641 5640 5639 5639 5638 5637 5637 5636 5636 5635 5634 5633 5633 5632 5631 5631
5659 5657 5655 5653 5651 5649 5648 5646 5645 5644 5643 5642 5640 5639 5638 5637 5636 5636 5635 5635 5634 5634 5634 5633 5632 5631 5631 5630 5629 5628 5627 5626 5625 5625 5624 5624 5623 5622 5622 5621 5620 5619 5619
5650 5647 5645 5643 5641 5639 5637 5636 5634 5633 5632 5630 5629 5628 5626 5625 5625 5624 5623 5623 5623 5622 5622 5621 5620 5619 5618 5617 5616 5615 5614 5614 5613 5612 5612 5611 5611 5610 5610 5609 5608 5607 5607
5640 5637 5635 5633 5631 5629 5627 5625 5623 5622 5621 5619 5618 5616 5615 5614 5613 5613 5612 5612 5611 5610 5609 5609 5608 5607 5606 5605 5603 5603 5602 5601 5600 5600 5599 5599 5598 5598 5597 5597 5596 5595 5594
5630 5627 5625 5623 5621 5619 5617 5615 5613 5611 5610 5608 5607 5605 5604 5603 5602 5601 5601 5600 5599 5598 5598 5596 5595 5594 5594 5592 5591 5590 5589 5588 5588 5587 5587 5586 5586 5585 5585 5584 5583 5583 5582
5620 5617 5615 5613 5611 5609 5607 5605 5603 5601 5599 5598 5596 5594 5593 5591 5590 5590 5589 5588 5587 5586 5585 5584 5583 5582 5581 5580 5579 5578 5577 5576 5576 5575 5574 5574 5573 5572 5572 5571 5570 5569 5569
5611 5608 5606 5603 5601 5599 5597 5595 5593 5591 5589 5587 5585 5584 5582 5580 5579 5578 5577 5576 5575 5574 5573 5572 5571 5570 5569 5568 5566 5565 5564 5563 5562 5561 5561 5560 5560 5559 5558 5558 5557 5556 5556
5601 5599 5596 5593 5591 5589 5587 5585 5583 5580 5578 5576 5574 5572 5571 5569 5568 5566 5565 5564 5563 5562 5561 5559 5558 5557 5556 5555 5553 5552 5551 5550 5549 5548 5547 5547 5546 5546 5545 5545 5544 5543 5543
5591 5589 5586 5583 5581 5579 5577 5574 5572 5570 5568 5565 5563 5561 5559 5557 5556 5554 5553 5551 5550 5549 5548 5547 5546 5544 5543 5542 5540 5539 5538 5536 5535 5535 5534 5533 5533 5533 5532 5532 5531 5530 5530
Wind_Speed
21 21 21 21 21 21 21 21 21 21 21 21 21 21 21 21 21 21 21 21 21 20 20 20 19 19 19 19 19 19 19 19 19 19 19 19 19 19 19 19 19 19 19
22 22 22 22 22 22 22 22 22 22 22 22 22 23 23 23 22 22 22 22 22 22 21 21 21 21 21 21 21 20 20 21 21 20 20 20 20 20 20 20 21 21 21
23 23 23 23 23 23 23 23 22 23 23 22 22 23 23 23 23 22 23 22 22 22 22 22 22 22 22 22 23 23 22 22 23 22 22 23 22 22 22 22 22 22 22
23 24 24 24 24 23 23 23 23 23 23 23 23 23 23 23 23 23 23 22 23 23 23 23 23 23 23 24 24 24 24 24 24 24 24 24 24 24 24 24 23 23 23
25 25 25 25 25 24 24 24 24 24 24 25 24 24 24 24 24 24 23 24 24 24 24 24 24 24 25 25 25 25 25 25 25 25 25 25 26 26 26 25 25 25 24
25 24 24 24 25 25 25 25 25 25 25 25 25 25 25 24 24 25 25 25 25 25 25 24 24 24 25 26 26 26 26 25 25 25 25 26 26 26 26 26 26 26 26
24 25 25 25 25 26 26 26 26 26 26 26 26 26 25 25 26 26 26 27 26 26 26 26 25 25 25 25 26 27 27 27 27 26 25 26 26 26 27 27 27 27 27
25 25 26 26 26 27 27 27 27 27 27 27 27 27 26 26 27 27 27 28 28 28 27 27 26 25 26 26 27 27 28 28 29 28 27 27 28 28 28 28 28 28 28
27 27 27 28 28 28 28 28 28 28 28 28 28 28 27 27 28 28 28 29 28 28 28 28 27 26 26 27 28 28 28 29 30 30 29 28 29 30 30 29 29 30 29
29 29 29 29 30 30 30 29 29 29 29 29 29 29 29 28 29 29 29 29 28 29 29 29 29 29 28 29 29 29 30 31 31 31 31 30 30 31 31 31 31 31 31
32 31 31 31 31 31 31 31 31 30 30 30 30 30 30 30 30 29 30 30 30 30 30 30 30 30 30 31 31 31 31 31 32 32 32 32 32 32 32 32 33 33 32
32 32 32 32 33 32 32 33 32 32 31 31 31 31 31 31 31 31 31 30 30 30 30 30 31 31 31 31 31 32 32 33 33 32 32 33 33 33 33 34 34 34 34
33 33 34 34 34 34 33 33 33 32 31 31 31 31 31 31 32 32 32 31 31 31 31 32 32 32 32 32 32 32 33 33 34 33 33 33 34 34 34 35 34 35 34
36 35 34 34 34 34 33 33 33 32 32 32 32 32 32 32 32 32 32 31 31 31 31 32 32 32 33 33 33 33 34 35 35 35 35 35 35 34 34 34 34 34 34
35 35 35 35 34 34 34 33 32 33 33 32 32 32 33 33 33 33 33 32 32 31 32 32 32 33 33 34 34 34 35 35 35 36 36 36 35 35 35 36 36 36 35
34 34 34 34 34 34 33 33 33 34 34 34 33 33 33 33 33 33 34 34 34 34 34 34 33 33 34 34 34 34 35 35 36 36 36 37 36 36 36 36 36 37 37
34 34 34 33 33 33 33 34 34 34 34 34 35 35 35 35 35 35 34 34 35 35 34 34 34 35 35 35 35 35 34 34 35 36 37 37 37 37 38 37 37 38 38
34 33 33 33 33 34 34 34 35 35 35 35 35 36 36 36 36 35 35 36 36 36 35 35 35 36 36 36 36 36 36 36 36 36 37 37 37 37 37 38 37 37 37
33 32 32 32 33 33 34 34 35 35 35 35 35 35 36 36 36 36 36 36 36 37 37 37 37 37 37 37 37 37 37 36 37 37 37 37 37 37 37 37 36 36 36
34 33 33 33 33 34 34 34 35 35 35 35 36 35 36 36 36 36 36 36 36 37 36 37 37 37 38 38 38 37 37 37 37 37 37 36 37 37 37 37 37 37 36
34 33 33 33 33 34 34 34 34 34 35 35 35 35 34 35 35 35 35 36 36 36 36 36 36 36 37 37 38 38 38 37 37 37 37 37 37 37 38 38 38 38 37
33 33 32 32 32 33 33 34 34 34 34 34 34 34 34 34 34 34 35 36 36 36 37 37 36 36 37 37 37 37 37 37 37 37 37 37 37 38 38 38 39 39 38
33 32 32 32 33 33 33 32 32 33 33 33 33 33 34 34 35 35 36 36 36 36 37 37 37 37 37 37 37 37 37 37 37 38 38 38 38 38 38 38 38 38 38
33 32 32 32 32 33 33 33 33 33 33 33 33 34 34 34 35 35 36 36 36 37 37 38 38 38 38 38 38 38 38 38 38 39 39 39 38 38 38 38 38 38 38
33 33 33 33 33 33 33 34 34 34 34 34 35 35 36 36 36 36 37 36 37 37 38 38 39 39 39 39 39 39 39 39 39 39 38 38 38 38 37 37 37 37 37
34 34 34 34 33 34 34 34 34 34 35 35 36 36 36 36 36 37 37 37 37 37 37 38 38 38 38 39 38 38 38 38 38 38 38 38 37 37 36 36 36 35 35
Wind_Direction
289 290 289 289 290 290 289 288 288 287 286 285 284 285 285 285 284 283 283 282 280 278 278 279 279 279 279 280 282 282 282 283 284 284 282 279 279 280 281 281 279 278 278
290 289 289 289 290 288 288 287 288 288 287 284 284 283 283 282 281 281 280 280 278 278 277 276 276 276 277 277 278 279 280 280 280 281 279 277 278 279 280 280 279 278 277
291 290 291 291 290 288 287 286 286 287 287 285 284 284 284 284 281 280 278 278 278 278 276 275 274 275 277 277 276 276 278 279 278 279 278 278 277 278 279 279 280 278 277
292 291 290 290 289 288 287 285 285 285 285 284 284 284 284 284 282 280 279 278 277 277 277 274 274 275 276 276 275 276 277 278 278 277 277 277 277 278 278 278 277 276 276
291 291 290 289 288 287 285 284 285 286 286 285 285 285 284 284 283 281 279 278 275 275 277 276 275 274 273 273 274 274 275 276 277 277 276 277 277 277 276 276 275 275 275
292 292 291 289 287 287 285 284 286 287 287 286 286 285 284 283 282 281 281 280 278 277 277 279 277 275 274 275 274 274 274 274 275 276 277 276 276 276 275 275 275 274 273
291 292 291 289 288 288 287 285 286 287 286 285 284 284 283 281 280 280 282 281 281 280 278 279 278 277 276 276 275 274 274 274 275 276 276 276 275 275 274 275 275 274 273
289 289 289 289 289 289 289 286 285 285 284 283 283 284 284 283 281 280 281 282 281 281 280 278 279 278 276 276 276 275 274 274 275 276 275 276 275 274 275 275 274 273 273
288 288 289 289 289 288 288 287 285 284 283 281 281 282 282 282 282 280 280 281 282 282 281 279 277 278 276 275 276 276 276 276 276 275 274 275 275 275 274 275 274 274 273
288 288 287 287 288 288 287 286 284 283 281 280 279 280 281 282 282 281 280 281 281 281 281 280 278 277 277 275 276 276 276 275 276 276 275 275 275 275 274 275 275 275 272
285 285 286 286 287 287 286 285 283 282 281 279 279 280 280 281 282 282 281 281 280 280 280 280 280 278 277 276 275 276 277 275 275 275 275 275 276 276 275 275 275 274 273
286 285 285 286 286 286 284 284 283 281 281 279 278 278 279 280 281 281 281 280 280 280 280 280 281 280 277 277 275 275 276 275 275 276 275 274 275 275 276 275 276 275 274
287 287 286 284 284 285 284 284 283 281 280 279 278 277 278 279 280 279 279 279 279 279 279 280 281 281 279 277 276 274 275 275 275 275 275 275 276 276 275 275 274 274 273
288 287 286 285 284 284 284 283 283 283 281 280 278 277 277 278 279 278 278 279 279 279 279 280 281 281 280 278 277 275 274 275 275 276 275 275 276 276 275 274 274 274 274
289 288 287 285 284 283 283 283 282 281 281 280 279 277 278 279 279 278 277 277 278 279 280 280 281 281 281 280 278 276 275 275 276 276 276 276 276 275 275 273 273 274 274
291 290 288 286 284 283 282 282 281 280 281 281 279 278 279 280 280 279 277 277 278 279 280 280 281 280 280 280 279 277 276 276 275 276 276 277 276 276 276 274 273 274 274
293 291 289 286 285 284 283 282 281 281 282 281 279 279 278 278 278 278 277 277 277 278 280 280 281 281 281 279 278 277 276 275 275 275 276 277 277 277 276 275 275 275 275
292 291 290 287 285 284 284 284 283 283 282 281 280 278 278 277 277 277 276 276 276 277 278 279 280 280 281 280 280 279 277 275 274 274 275 276 277 277 277 275 275 275 274
292 290 289 288 287 286 285 284 284 283 282 282 281 279 278 276 276 276 276 276 277 277 278 279 279 279 280 280 279 278 277 275 274 274 274 274 275 275 275 275 276 275 275
292 290 289 288 287 286 286 284 284 284 283 283 283 282 280 278 277 276 277 279 279 278 278 279 279 279 280 280 279 278 277 276 274 273 273 274 273 273 273 274 275 276 276
292 291 290 289 289 289 288 286 285 285 284 284 283 282 281 279 278 276 277 278 278 278 279 280 281 281 280 280 279 278 277 276 274 273 274 274 274 274 274 273 275 277 278
293 293 292 291 290 289 289 288 287 286 286 286 285 283 282 281 279 278 278 278 278 278 279 279 280 281 281 281 280 279 278 277 274 274 274 275 274 274 274 274 275 276 277
293 293 292 291 290 290 290 290 289 288 287 287 286 285 283 282 281 279 278 279 279 278 278 278 279 280 282 282 281 280 278 277 276 276 276 275 275 274 274 274 274 275 276
294 293 292 291 290 290 290 290 289 288 288 288 287 285 284 283 282 281 280 280 280 280 279 278 279 280 281 282 282 280 279 278 276 276 276 275 275 275 275 275 275 275 275
293 293 292 291 291 290 290 290 289 288 288 287 286 285 284 283 283 282 281 280 280 280 280 280 280 279 280 281 281 280 279 278 277 276 276 276 276 277 276 276 276 275 275
292 291 292 292 291 291 291 290 290 289 289 288 287 287 286 284 284 283 281 280 280 281 281 281 281 280 280 281 280 280 279 278 277 276 276 277 277 276 276 276 276 276 276